RH
28 33 37 38 42 50 48 36 38 30 29 25 26 37 36 38 23 19 18 17 17 18 20 22 24 30 32 34 34 28 22 14 10 10 13 16 16 17 18 18 17 15 15 14
30 28 29 28 27 33 42 47 49 36 17 38 41 39 32 22 19 18 18 19 20 19 17 16 17 21 27 33 30 28 23 15 10 9 11 14 15 15 15 15 14 13 13 12
29 24 30 26 13 16 18 18 21 29 21 40 38 35 26 20 20 21 22 24 23 19 17 22 20 15 13 17 18 19 18 14 10 8 10 12 13 13 13 13 12 12 11 10
36 27 46 15 25 30 22 27 30 24 25 28 27 24 22 25 32 33 28 28 30 26 21 21 21 20 14 12 12 13 13 14 11 8 8 9 11 11 11 10 10 10 9 9
42 59 23 17 29 32 21 20 19 20 23 22 20 21 27 29 38 42 38 36 35 45 47 41 34 22 17 15 11 10 10 11 11 9 7 8 8 8 8 8 8 8 8 7
66 63 59 31 24 23 23 29 31 27 26 22 23 26 25 31 43 45 47 48 47 48 48 47 45 31 28 22 16 14 10 9 10 10 9 8 7 6 6 6 6 6 6 6
77 72 22 22 32 35 34 31 34 32 32 34 33 36 43 47 50 48 36 36 38 42 47 48 46 44 39 38 35 21 16 11 9 9 9 8 7 7 6 6 6 5 6 6
93 91 44 31 41 33 35 39 42 40 38 37 39 49 51 47 32 27 27 32 37 38 42 43 43 43 43 42 42 41 31 24 18 12 10 9 9 9 8 8 7 7 7 7
28 32 34 46 44 46 49 52 54 56 56 53 53 49 28 26 35 41 45 44 40 37 33 38 39 40 39 42 41 40 40 39 34 26 21 15 12 12 12 12 11 11 11 11
36 38 43 48 54 57 54 56 59 61 56 38 29 31 40 47 49 50 48 43 39 36 32 31 32 35 39 39 40 40 39 39 38 38 33 26 23 22 23 24 21 16 13 12
38 40 46 50 50 54 61 65 60 53 39 38 45 59 64 64 59 54 47 44 42 38 35 32 27 24 23 24 30 36 40 40 39 37 36 32 26 26 27 29 29 26 18 14
52 43 46 52 66 73 73 65 48 34 39 61 73 73 70 64 53 45 41 41 41 43 42 38 36 36 32 32 31 31 35 38 40 39 36 34 33 34 33 32 30 26 24 22
47 58 62 66 64 59 64 59 40 46 64 79 80 77 75 68 54 48 46 38 32 29 27 27 29 34 42 52 51 45 43 40 39 40 40 38 37 36 35 36 34 33 33 33
65 79 84 83 77 72 71 51 67 83 86 86 84 80 81 83 83 77 70 61 48 33 29 29 28 41 44 54 60 55 48 42 39 41 43 43 42 41 40 40 42 58 56 57
56 70 84 79 68 65 60 78 95 95 93 93 90 90 91 89 84 83 85 84 72 59 40 41 37 37 44 49 60 71 64 54 49 47 48 48 49 55 66 75 79 82 84 83
62 61 62 62 68 80 95 94 91 95 97 97 84 70 57 53 51 51 56 72 79 71 54 38 55 50 47 46 45 59 85 87 75 68 69 75 85 92 96 96 92 87 81 78
68 64 69 84 100 100 100 98 96 87 76 74 77 77 60 48 40 32 30 38 45 56 65 40 37 48 50 49 43 42 60 85 98 98 96 94 98 98 98 95 92 89 86 90
77 78 79 82 82 76 73 77 73 66 63 66 66 63 59 52 44 36 32 38 48 47 53 54 37 27 30 45 56 48 46 65 94 96 98 98 97 97 95 90 80 66 56 52
89 89 86 79 80 76 71 67 59 49 36 18 24 36 37 30 25 22 18 16 21 30 39 39 38 32 25 20 27 48 49 46 63 74 75 74 74 70 56 46 41 36 32 28
100 94 86 81 76 64 57 54 45 27 14 18 21 23 20 18 17 17 17 16 14 16 16 13 19 26 22 16 15 18 31 49 48 49 50 48 61 58 53 47 43 36 30 22
87 76 70 71 68 47 14 13 13 17 24 27 24 21 20 22 25 29 28 26 22 26 26 23 25 24 26 28 26 20 19 22 32 49 49 41 42 44 43 35 23 15 13 13
75 68 51 24 16 14 14 15 18 26 26 23 24 25 29 34 36 34 35 36 34 34 36 38 39 41 43 48 50 52 50 45 43 35 37 50 55 52 48 42 35 26 21 22
28 22 22 20 19 18 16 18 26 28 26 25 25 28 36 44 45 44 37 33 32 30 29 28 28 25 29 46 48 44 41 48 54 50 44 36 33 32 30 31 35 39 38 38
29 32 26 22 20 21 26 26 31 32 33 32 31 31 41 46 44 42 34 32 33 33 28 26 25 19 19 33 49 52 48 58 74 90 82 62 49 42 43 48 56 65 69 75
41 38 29 25 24 20 26 32 34 38 35 29 34 41 49 51 50 41 33 34 35 34 29 24 20 19 22 59 79 87 83 90 98 97 97 100 99 96 90 87 87 89 86 85
43 36 30 29 23 24 36 44 51 48 42 40 43 55 50 47 43 37 37 37 36 32 29 27 26 24 34 72 84 91 89 91 98 99 97 97 98 98 99 100 99 96 91 91
41 36 34 30 23 43 66 74 72 58 48 51 51 40 36 33 33 34 34 34 32 29 27 27 28 27 38 77 92 97 96 96 97 96 96 97 96 97 96 96 98 97 96 95
Wind_Speed
13 15 18 19 19 18 23 27 24 28 31 29 29 27 18 14 12 14 14 14 14 15 16 17 18 19 21 22 22 24 24 23 22 23 22 22 22 21 20 21 21 22 23 22
16 16 21 27 27 28 30 30 35 34 33 16 5 9 11 8 12 16 16 17 18 19 20 21 21 22 22 23 24 26 25 25 25 24 25 25 25 24 22 23 24 25 25 25
7 11 13 20 19 25 33 31 25 28 17 15 12 12 7 10 16 20 21 23 24 26 26 24 24 26 26 26 26 27 26 26 26 27 27 28 28 25 25 26 28 27 27 28
8 11 3 6 6 1 3 9 14 14 9 8 7 8 7 17 23 24 24 25 25 26 25 25 25 26 28 28 28 28 27 27 28 30 30 30 30 29 29 30 31 31 31 32
5 6 14 16 11 11 7 6 7 6 7 11 10 10 14 23 27 26 25 27 29 31 31 29 29 28 28 25 28 28 28 29 30 33 31 31 31 32 33 34 34 34 35 35
7 5 5 3 6 7 6 7 9 11 13 13 15 21 25 29 27 24 27 29 29 29 29 30 30 29 28 26 27 27 30 30 32 34 34 33 34 34 35 37 37 37 37 37
21 9 9 11 11 10 8 7 10 11 13 17 23 29 32 29 29 33 33 30 28 28 28 29 30 30 30 29 27 29 30 31 32 33 35 36 36 37 37 38 39 39 39 38
16 9 8 8 7 8 7 6 10 17 25 28 30 32 30 31 32 31 29 27 26 27 26 27 30 32 29 27 30 31 31 30 32 34 35 35 37 37 38 40 41 41 42 41
9 4 6 5 8 16 18 19 25 28 29 30 30 31 32 30 27 25 25 25 26 27 27 27 27 30 32 29 29 29 29 30 33 33 36 38 39 39 40 41 43 43 44 45
15 12 13 17 24 19 26 27 24 23 27 31 30 29 25 23 23 24 25 26 27 27 27 27 27 28 30 31 30 29 30 31 31 33 35 36 38 38 37 38 39 40 41 41
23 22 25 27 29 30 28 25 25 30 31 27 24 21 21 22 24 25 26 26 28 29 28 27 27 30 31 31 32 32 31 32 33 34 35 35 38 40 41 41 41 39 38 38
30 28 29 27 24 23 26 26 30 26 26 23 21 21 22 24 25 27 27 27 26 27 27 25 25 26 27 30 31 32 33 34 34 33 34 34 34 33 35 34 34 33 33 32
20 21 22 25 27 27 25 27 27 25 21 21 22 23 25 25 26 27 29 29 29 31 32 31 30 29 28 25 27 29 31 32 33 33 32 31 31 29 27 31 29 29 28 27
24 25 26 26 27 27 26 27 23 20 19 20 21 23 25 27 28 30 32 33 32 30 31 32 31 33 33 30 27 27 28 30 29 29 30 30 29 27 26 24 24 22 24 23
26 24 24 23 22 24 26 22 20 20 20 21 24 26 29 29 30 30 31 35 35 34 32 32 32 31 32 32 30 27 28 29 29 29 27 27 26 25 24 23 22 22 22 23
22 23 25 25 21 18 18 20 22 25 26 25 28 28 28 30 30 30 32 34 37 36 34 31 30 30 31 32 32 31 29 29 30 30 28 26 26 25 25 25 25 25 26 29
24 22 17 17 16 18 20 23 25 28 32 33 33 33 33 34 36 37 37 36 36 35 36 35 33 32 31 33 36 34 33 31 31 32 32 32 31 31 32 33 34 35 36 37
14 14 15 16 17 19 20 22 25 28 31 34 37 39 40 40 42 43 41 41 38 36 33 38 39 37 35 37 37 37 37 34 34 34 35 38 39 39 37 35 32 33 35 35
14 15 17 20 22 24 28 30 33 38 43 42 42 43 42 42 42 44 46 46 44 43 41 42 44 44 41 39 41 41 40 39 36 32 31 33 35 36 37 35 34 35 35 36
16 19 22 25 28 33 37 40 44 46 41 39 40 40 40 39 38 37 37 38 36 39 41 42 44 46 47 46 46 45 44 45 44 42 42 39 39 40 41 41 42 43 45 46
24 27 30 34 38 44 42 38 39 39 37 34 35 35 35 35 34 34 35 37 31 33 38 41 42 43 43 44 46 49 48 48 48 49 46 45 42 43 45 46 44 44 45 46
30 36 41 43 40 42 39 37 38 37 36 37 36 34 33 33 32 32 31 35 36 34 36 37 37 39 41 43 43 40 41 43 45 48 50 48 48 46 46 48 46 45 44 44
41 40 40 39 39 41 41 39 35 34 36 37 37 34 33 32 33 36 39 36 39 39 39 39 38 40 41 42 42 43 42 40 39 39 40 42 43 44 44 45 44 42 42 41
38 37 37 37 37 37 37 34 33 34 35 34 33 31 31 33 35 34 39 40 40 40 40 38 40 42 42 42 41 42 41 40 38 37 35 36 36 36 36 37 37 37 36 35
37 37 36 36 37 38 35 33 35 32 31 32 31 30 32 34 38 40 41 40 38 39 39 36 39 42 41 38 37 39 39 38 37 36 33 33 31 31 31 31 31 31 31 32
35 35 36 36 36 35 31 30 28 27 29 31 33 34 36 38 41 41 40 38 38 38 38 39 40 43 37 38 39 39 35 34 33 34 32 29 29 29 28 28 28 29 30 31
36 36 36 35 32 29 27 27 31 32 33 37 38 35 36 38 39 41 41 40 41 39 39 40 41 42 38 37 38 36 32 31 29 28 27 26 25 25 26 28 29 29 28 28
Wind_Direction
258 267 268 261 255 250 243 245 247 268 274 283 290 290 282 289 304 317 323 328 322 316 308 300 293 286 282 278 273 274 277 272 266 263 264 265 266 267 271 276 281 285 287 292
281 275 269 267 260 254 253 254 258 269 285 306 299 264 270 281 315 324 323 321 315 309 305 303 301 296 288 281 280 281 278 272 265 262 260 260 263 266 270 274 277 281 286 290
278 284 291 283 273 258 254 257 264 263 298 280 260 257 237 275 313 319 319 315 310 307 302 301 298 293 288 283 282 282 279 273 266 261 259 261 263 267 269 271 274 278 282 285
273 286 262 251 232 330 297 237 248 262 255 236 203 204 270 314 320 315 308 311 310 310 306 299 299 298 288 287 285 282 280 274 268 262 259 260 263 265 268 270 273 276 279 282
252 247 276 273 251 258 238 219 219 216 210 206 222 249 297 310 318 315 310 311 309 311 311 308 303 297 294 291 286 283 279 273 268 266 265 264 264 266 267 270 273 275 277 280
230 247 238 235 201 189 216 247 226 218 226 247 271 288 301 309 314 309 309 310 307 307 311 310 308 300 298 298 290 287 279 274 273 272 269 266 265 266 268 270 272 275 278 281
230 249 271 239 231 243 235 217 221 229 253 276 294 305 308 308 310 311 312 309 306 305 306 306 305 304 301 299 294 285 284 281 276 275 275 272 270 270 271 273 275 277 279 281
214 232 268 242 241 224 226 234 266 276 280 284 293 303 305 306 307 307 306 305 303 303 303 302 300 299 301 300 295 293 287 285 279 277 277 278 277 277 277 278 279 280 280 280
224 253 251 225 267 272 274 285 292 290 287 289 295 301 305 305 306 308 309 309 307 305 304 304 302 300 299 300 296 291 290 290 284 280 277 275 275 276 277 278 279 280 281 282
270 271 264 272 268 269 291 298 294 292 296 298 300 304 307 307 308 309 310 311 311 311 310 307 306 304 302 301 300 298 295 289 284 281 280 280 280 282 284 285 284 284 284 283
273 270 273 278 284 286 288 287 287 297 301 303 305 306 308 309 310 313 315 317 316 315 316 316 312 307 304 302 302 301 299 294 290 287 283 278 277 279 281 283 284 284 284 283
274 273 272 277 278 282 286 289 296 297 300 303 305 305 309 313 316 318 318 318 320 321 321 321 320 315 310 304 298 296 296 296 294 291 289 288 286 285 284 281 281 281 281 282
278 273 271 277 284 287 285 294 299 298 295 299 302 304 309 310 310 313 317 320 322 323 322 325 325 322 320 314 308 304 301 297 296 294 290 288 286 284 279 283 282 281 282 283
280 273 270 275 279 280 286 291 287 284 284 285 289 298 303 307 309 309 310 312 316 319 320 320 322 322 321 319 317 313 309 304 298 291 287 285 283 281 279 274 276 282 284 283
271 272 272 274 276 276 278 270 269 273 277 286 294 296 298 301 303 304 306 307 308 310 312 313 315 316 316 318 316 317 317 312 306 299 291 285 282 280 279 278 275 275 278 284
268 276 280 284 282 275 271 274 279 282 283 289 294 302 307 306 308 311 311 307 307 306 306 303 304 310 314 315 318 315 313 315 311 304 294 286 281 279 278 280 280 281 283 288
274 274 271 276 283 285 288 292 295 299 303 304 303 299 302 305 307 311 309 303 300 300 297 294 300 298 301 307 308 312 311 300 297 295 289 286 282 279 280 280 281 282 284 287
264 273 281 285 289 291 293 295 297 299 301 301 300 301 302 304 305 306 305 303 296 292 288 285 287 290 290 290 292 295 299 302 291 284 284 280 281 283 288 292 294 295 294 293
288 296 302 308 307 307 305 302 301 303 306 305 302 302 303 304 303 302 303 300 297 294 285 279 280 283 284 283 284 283 283 285 285 286 286 287 287 288 291 293 295 297 299 300
291 298 303 304 302 304 303 302 299 300 303 303 302 303 306 306 306 304 302 300 299 291 285 282 279 277 278 277 276 277 278 277 279 278 279 282 285 287 292 294 297 298 296 298
292 297 297 295 294 297 299 300 299 300 302 302 303 305 303 301 301 302 303 303 305 300 297 294 294 291 290 286 281 278 277 274 273 273 274 274 274 279 285 288 289 292 294 295
292 297 297 298 299 300 302 299 295 294 297 298 297 299 301 300 299 299 304 312 314 315 311 310 309 306 303 299 297 295 291 288 285 279 275 275 278 279 279 283 288 291 294 295
298 297 297 297 298 300 300 301 296 293 292 294 294 295 296 295 298 304 307 308 306 307 306 309 309 310 307 301 298 298 297 292 287 285 281 279 281 283 287 289 290 292 294 294
293 293 293 291 296 301 302 301 294 292 296 298 297 294 291 291 295 304 306 307 308 308 306 307 308 309 308 304 301 300 298 296 292 286 282 280 280 282 284 288 290 292 293 295
290 293 294 295 297 301 299 299 293 294 297 301 297 288 283 288 295 303 304 303 305 308 307 306 309 313 311 307 303 303 297 296 294 292 286 283 282 283 283 284 286 288 292 295
290 293 294 296 302 302 297 294 292 296 303 298 290 288 287 289 293 297 302 302 304 307 307 306 311 317 311 311 308 309 302 297 292 289 289 286 283 282 281 282 284 288 292 293
290 291 292 295 300 303 299 290 288 289 292 296 299 299 296 296 297 299 300 300 301 303 305 308 309 316 313 311 311 310 300 297 294 290 289 288 282 277 278 281 284 289 289 293